Regional Weather Roundup
Issued by NWS

Home | Current Version | Previous Version | Text Only | Print | Product List | Glossary On
Versions: 1 2 3 4 5 6 7 8 9 10 11 12 13 14 15 16 17 18 19 20 21 22 23 24 25 26 27 28 29 30 31 32 33 34 35 36 37 38 39 40 41 42 43 44 45 46 47 48 49 50
000
ASUS43 KLSX 241207
RWRMO

WEATHER SUMMARY FOR MISSOURI
NATIONAL WEATHER SERVICE SPRINGFIELD MO
600 AM CST MON NOV 24 2014

NOTE: "FAIR" INDICATES FEW OR NO CLOUDS BELOW 12,000 FEET WITH NO
       SIGNIFICANT WEATHER AND/OR OBSTRUCTIONS TO VISIBILITY.
       CURRENT SKY AND/OR WEATHER CONDITIONS ARE NOT AVAILABLE FOR
       CHILLICOTHE AND FARMINGTON.

MOZ001>031-035>038-043-044-053-054-241300-
...NORTHERN AND WESTERN MISSOURI...

CITY           SKY/WX    TMP DP  RH WIND       PRES   REMARKS
KANSAS CTY INT CLOUDY    34  27  75 W16G24    29.61R WCI  24
6HR MIN TEMP:  33; 6HR MAX TEMP:  39;

KANSAS C DTWN  CLOUDY    36  25  64 W16G23    29.61R WCI  26
6HR MIN TEMP:  36; 6HR MAX TEMP:  43; 6HR PCP: TRACE;

ST JOSEPH      CLOUDY    33  25  72 NW15      29.61R WCI  23
6HR MIN TEMP:  32; 6HR MAX TEMP:  40;

CHILLICOTHE      N/A     34  25  69 W9        29.55R WCI  27
6HR MIN TEMP:  34; 6HR MAX TEMP:  41;

KIRKSVILLE     CLOUDY    32  27  81 W18G26    29.45R WCI  20
6HR MIN TEMP:  32; 6HR MAX TEMP:  35; 6HR PCP:  0.13;


$$
MOZ066>068-077>081-088>096-101>105-241300-
...SOUTHWEST MISSOURI...

CITY           SKY/WX    TMP DP  RH WIND       PRES   REMARKS
SPRINGFIELD    CLEAR     37  27  67 W13G22    29.67R WCI  29
6HR MIN TEMP:  36; 6HR MAX TEMP:  41; 6HR PCP:  0.04;

JOPLIN         CLEAR     37  30  75 W9        29.75R
6HR MIN TEMP:  37; 6HR MAX TEMP:  42; 6HR PCP: TRACE;


$$
MOZ032>034-039>042-045>050-055>058-069>072-241300-
...CENTRAL MISSOURI...

CITY           SKY/WX    TMP DP  RH WIND       PRES   REMARKS
COLUMBIA       CLOUDY    35  28  75 W18G30    29.53R WCI  24
6HR MIN TEMP:  35; 6HR MAX TEMP:  42; 6HR PCP:  0.20;

JEFFERSON CITY MOCLDY    36  26  67 W18G30    29.56R WCI  26
6HR MIN TEMP:  35; 6HR MAX TEMP:  44; 6HR PCP:  0.15;

ROLLA          CLOUDY    37  31  78 W22G32    29.52R WCI  26
6HR MIN TEMP:  36; 6HR MAX TEMP:  45; 6HR PCP:  0.27;

SEDALIA        MOCLDY    34  25  69 W17       29.60R WCI  23
6HR MIN TEMP:  34; 6HR MAX TEMP:  41; 6HR PCP:  0.03;

WHITEMAN AFB   MOCLDY    34  24  66 NW9       29.59R WCI  27
WARRENSBURG    CLOUDY    34  27  75 W7        29.61R WCI  28
OSAGE BEACH    CLOUDY    39  28  65 W12G18    29.60R

$$
MOZ051-052-059>065-241300-
...EAST CENTRAL MISSOURI...

CITY           SKY/WX    TMP DP  RH WIND       PRES   REMARKS
ST LOUIS INTL  CLOUDY    39  34  82 W17       29.45R WCI  30
6HR MIN TEMP:  38; 6HR MAX TEMP:  57; 6HR PCP:  0.48;

SPIRIT OF STL  CLOUDY    38  35  89 W13       29.47R WCI  30
6HR MIN TEMP:  37; 6HR MAX TEMP:  55; 6HR PCP:  0.36;

ST CHARLES     CLOUDY    38  34  85 W15       29.44R WCI  29
6HR MIN TEMP:  35; 6HR MAX TEMP:  52; 6HR PCP:  0.49;


$$
MOZ072>076-082>087-097>100-106>115-241300-
...SOUTH CENTRAL AND SOUTHEAST MISSOURI...

CITY           SKY/WX    TMP DP  RH WIND       PRES   REMARKS
CAPE GIRARDEAU MOCLDY    43  37  79 W21G36    29.56R
6HR MIN TEMP:  44; 6HR MAX TEMP:  60; 6HR PCP:  0.22;

FARMINGTON     CLOUDY    39  34  81 SW13G20   29.53R
6HR MIN TEMP:  37; 6HR MAX TEMP:  54; 6HR PCP:  0.04;

POPLAR BLUFF   CLOUDY    45  34  65 W14G30    29.59R
6HR MIN TEMP:  45; 6HR MAX TEMP:  61; 6HR PCP:  0.12;

WEST PLAINS    MOCLDY    39  32  76 W16G26    29.62R
6HR MIN TEMP:  39; 6HR MAX TEMP:  54; 6HR PCP:  0.01;


$$


USA.gov is the U.S. government's official web portal to all federal, state and local government web resources and services.